Regional Weather Roundup
Issued by NWS

Home | Current Version | Previous Version | Graphics & Text | Print | Product List | Glossary On
Versions: 1 2 3 4 5 6 7 8 9 10 11 12 13 14 15 16 17 18 19 20 21 22 23 24 25 26 27 28 29 30 31 32 33 34 35 36 37 38 39 40 41 42 43 44 45 46 47 48 49 50
000
ASUS43 KLOT 050700
RWRIL

ILLINOIS REGIONAL WEATHER ROUNDUP
NATIONAL WEATHER SERVICE CHICAGO/ROMEOVILLE IL
200 AM CDT TUE MAY 05 2015

NOTE: "FAIR" INDICATES FEW OR NO CLOUDS BELOW 12,000 FEET WITH NO
SIGNIFICANT WEATHER AND/OR OBSTRUCTIONS TO VISIBILITY.

* THESE STATIONS ARE NOT UNDER NWS QUALITY CONTROL. THEY ALSO MAY NOT
  REPORT WEATHER SUCH AS PRECIPITATION OR FOG.

ILZ001-002-007-009-015-016-024-050800-
NORTHWEST ILLINOIS

CITY           SKY/WX    TMP DP  RH WIND       PRES   REMARKS
MOLINE         LGT RAIN  62  60  93 E7        30.14R FOG
$$

ILZ003-004-008-010-011-017-018-050800-
NORTH CENTRAL ILLINOIS

CITY           SKY/WX    TMP DP  RH WIND       PRES   REMARKS
ROCKFORD       NOT AVBL
$$

ILZ005-006-012>014-019>023-050800-
NORTHEAST ILLINOIS

CITY           SKY/WX    TMP DP  RH WIND       PRES   REMARKS
CHICAGO-OHARE  LGT RAIN  53  45  74 N8        30.18S
CHICAGO-MIDWAY LGT RAIN  59  43  55 E3        30.18R
AURORA         LGT RAIN  53  45  74 NE9       30.16F
WAUKEGAN       NOT AVBL
DUPAGE AIRPORT CLOUDY    52  47  83 NE7       30.17F
WHEELING       LGT RAIN  52  44  74 N5        30.20R
NORTHERLY ISL    N/A     56  40  55 W3          N/A
$$

LMZ740>746-050800-
SOUTHERN LAKE MICHIGAN

STATION/POSITION SKY/WX   TEMP    WIND        PRES    VSBY  WAVE
                          AIR SEA DIR/SP/G                  HT/PER
                          (F)     (DEG/KT/KT) (MB)    (MI)  (FT/S)
HARRISON CRIB              48     340/  7/  9   N/A
BURNHAM HARBOR             52     360/  4/  6   N/A
CALUMET HARBOR             49     350/  3/  6   N/A
BURNS HARBOR               53      60/  7/  8 1022.0F
MICHIGAN CITY              58      60/  5/  6   N/A
MICHIGAN CITY 6N           52 50   90/  4/  6   N/A           1
ST. JOSEPH                 54 50   50/  6/  8   N/A           0
$$

ILZ025>027-034>036-040-047-049-050-058-095>099-050800-
WEST-CENTRAL ILLINOIS

CITY           SKY/WX    TMP DP  RH WIND       PRES   REMARKS
QUINCY         CLOUDY    66  61  82 NW14G25   30.12R
$$

ILZ028>032-037-038-041>044-048-051>054-059>061-050800-
CENTRAL ILLINOIS

CITY           SKY/WX    TMP DP  RH WIND       PRES   REMARKS
PEORIA         NOT AVBL
SPRINGFIELD    CLOUDY    71  56  58 S14       30.10S
TAYLORVILLE    NOT AVBL
$$

ILZ033-039-045-046-055>057-062-063-050800-
EAST-CENTRAL ILLINOIS

CITY           SKY/WX    TMP DP  RH WIND       PRES   REMARKS
CHAMPAIGN      CLOUDY    65  60  84 E7        30.14F
MATTOON        MOCLDY    69  55  60 S8        30.14S
$$

ILZ079-100>102-050800-
SOUTHWEST ILLINOIS

CITY           SKY/WX    TMP DP  RH WIND       PRES   REMARKS
CAHOKIA*       MOCLDY    70  54  56 S6        30.14R
$$

ILZ064>066-069>071-074>076-080>082-084>086-088>090-092>094-050800-
SOUTH-CENTRAL ILLINOIS

CITY           SKY/WX    TMP DP  RH WIND       PRES   REMARKS
CARBONDALE     PTCLDY    60  53  77 S5        30.17S
$$

ILZ067-068-072-073-078-083-087-091-050800-
SOUTHEAST ILLINOIS

CITY           SKY/WX    TMP DP  RH WIND       PRES   REMARKS
LAWRENCEVILLE  PTCLDY    63  55  75 S3        30.18S
$$

ABBREVIATIONS USED IN REMARKS
   TC - TEMPERATURE IN CELSIUS
  WCI - WIND CHILL INDEX
   HX - HEAT INDEX
  VSB - VISIBILITY
$$




USA.gov is the U.S. government's official web portal to all federal, state and local government web resources and services.